[[{"header":{"parameterUnit":"m.s-1","parameterCategory":1,"la1":30.2991,"la2":30.254,"lo1":-89.0895,"lo2":-89.0444,"dy":0.0017,"dx":0.0017,"nx":28,"ny":28,"refTime":"2025-11-04T03:00:00:Z","depth":0,"parameterNumber":2,"parameterNumberName":"U-component_of_WINDS"},"data":[0,0,0,0,0,0,0,0,0,0,0,0,0,0,0,0,0,0,0,0,0,0,0,0,0,0,0,0,0,0,0,0,0,0,0,0,0,0,0,0,0,0,0,0,0,0,0,0,0,0,0,0,0,0,0,0,0,0,-2.826,-2.8261,0,-2.8313,-2.8314,-2.8315,-2.8188,-2.8184,-2.818,-2.8176,-2.8232,-2.8237,-2.8243,0,0,0,0,0,0,0,0,0,0,0,0,0,-2.8049,-2.8054,-2.826,-2.8261,-2.8261,-2.8313,-2.8314,-2.8315,-2.8189,-2.8184,-2.8179,-2.8175,-2.8231,-2.8237,-2.8243,0,0,0,0,0,0,0,0,0,0,0,0,0,-2.8126,-2.8055,-2.826,-2.8205,-2.82,-2.8313,-2.8314,-2.8315,-2.819,-2.8184,-2.8178,-2.8172,-2.8229,-2.8236,-2.8244,-2.8413,0,0,-2.8268,-2.8271,0,0,0,0,0,0,0,0,-2.8122,-2.8134,-2.8212,-2.8209,-2.8204,-2.8238,-2.826,-2.8348,-2.8192,-2.8194,-2.8176,-2.8169,-2.8239,-2.8246,-2.8269,-2.8416,-2.8418,-2.8269,-2.8273,-2.8277,-2.8279,0,0,0,0,0,0,0,-2.8116,-2.8131,-2.8281,-2.8214,-2.8209,-2.8177,-2.8182,-2.8276,-2.825,-2.8193,-2.8184,-2.8192,-2.8236,-2.8262,-2.8269,-2.8419,-2.8268,-2.8275,-2.828,-2.8283,-2.8706,-2.8713,0,0,0,0,0,0,-2.8118,-2.8127,-2.8279,-2.8283,-2.8147,-2.8186,-2.8191,-2.8233,-2.8248,-2.8245,-2.8197,-2.8186,-2.8251,-2.826,-2.8271,-2.847,-2.8277,-2.8284,-2.8289,-2.87,-2.8708,-2.8715,0,0,0,0,0,0,-2.8114,-2.8133,-2.8277,-2.8202,-2.8218,-2.8196,-2.8245,-2.8237,-2.8263,-2.8251,-2.8246,-2.8229,-2.8247,-2.826,-2.8378,-2.8471,-2.8288,-2.8295,-2.8692,-2.8702,-2.8711,-2.8871,0,0,0,0,0,0,-2.8109,-2.8132,-2.8196,-2.8205,-2.8223,-2.8385,-2.825,-2.8243,-2.8277,-2.8263,-2.828,-2.8277,-2.8243,-2.8367,-2.8386,-2.8478,-2.8301,-2.8684,-2.8697,-2.8708,-2.8857,-2.8885,-2.8908,0,0,0,0,0,-2.8101,-2.8239,-2.82,-2.8219,-2.8303,-2.839,-2.84,-2.8359,-2.8285,-2.8349,-2.8341,-2.8276,-2.8457,-2.8381,-2.8401,-2.8496,-2.8678,-2.8693,-2.8707,-2.8846,-2.8879,-2.8908,0,0,0,0,0,0,-2.8243,-2.8239,-2.8196,-2.8341,-2.8367,-2.8369,-2.8449,-2.8396,-2.8444,-2.8429,-2.8375,-2.838,-2.8509,-2.8514,-2.8429,-2.866,-2.8555,-2.8574,-2.8653,-2.8685,-2.871,-2.8707,-2.8307,0,0,0,0,0,-2.8291,-2.8362,-2.8355,-2.8483,-2.8498,-2.8472,-2.8508,-2.8474,-2.8499,-2.8509,-2.851,-2.8537,-2.8599,-2.8642,-2.8699,-2.8856,-2.8858,-2.8932,-2.8957,-2.8978,-2.8997,-2.9081,-2.9114,-2.8763,-2.8763,-2.8763,0,0,-2.8391,-2.8398,-2.8446,-2.8512,-2.8528,-2.8603,-2.8482,-2.8566,-2.8622,-2.8522,-2.8634,-2.8636,-2.8662,-2.8801,-2.8862,-2.8809,-2.9093,-2.8997,-2.9014,-2.9021,-2.9099,-2.9133,-2.9162,-2.8773,-2.8771,-2.877,0,0,-2.8612,-2.8624,-2.8733,-2.8751,-2.8776,-2.8757,-2.8783,-2.8793,-2.879,-2.8902,-2.8829,-2.8893,-2.9002,-2.9024,-2.905,-2.9278,-2.922,-2.9298,-2.9432,-2.9515,-2.9543,-2.9567,-2.965,-2.968,-2.9315,-2.9316,-2.9316,0,-2.8734,-2.8844,-2.8795,-2.8885,-2.8917,-2.8828,-2.8938,-2.8958,-2.9001,-2.9025,-2.8964,-2.9099,-2.911,-2.9254,-2.9309,-2.9332,-2.9361,-2.9297,-2.9542,-2.9566,-2.9588,-2.9667,-2.9698,-2.9325,-2.9324,-2.9323,-2.9322,0,-2.8993,-2.9071,-2.9155,-2.9199,-2.9239,-2.9339,-2.9305,-2.9352,-2.9313,-2.9301,-2.9415,-2.9425,-2.9483,-2.9514,-2.9477,-2.9652,-2.9619,-2.9551,-2.9444,-2.9632,-2.9705,-2.9734,-2.9339,-2.9335,-2.9332,-2.933,0,0,-2.9308,-2.9322,-2.9354,-2.9373,-2.9394,-2.9453,-2.9548,-2.9604,-2.9645,-2.9677,-2.9756,-2.985,-2.9787,-2.9816,-2.9781,-2.9853,-3.0035,-2.9777,-2.9776,-2.9826,-3.0229,-3.0282,-3.0317,-2.9995,-3.0001,-3.0005,-3.0228,0,-2.9528,-2.9692,-2.965,-2.9813,-2.9884,-2.98,-2.9883,-2.9905,-2.9895,-2.9954,-2.9943,-3.0011,-2.9922,-2.9939,-3.0007,-2.9999,-3.0116,-2.9981,-3.0069,-3.0073,-3.0068,-3.0355,-3.0411,-3.0621,-3.0256,-3.026,-3.0264,0,-2.9807,-2.985,-3.0021,-3.0029,-3.0057,-3.0133,-3.0181,-3.0238,-3.026,-3.0248,-3.028,-3.023,-3.0324,-3.0214,-3.0343,-3.0253,-3.0286,-3.0287,-3.0294,-3.0303,-3.0182,-3.0374,-3.0687,-3.0719,-3.0308,-3.0304,-3.0301,0,-3.0022,-3.0122,-3.0237,-3.0255,-3.0268,-3.0323,-3.0331,-3.0347,-3.0383,-3.0425,-3.0448,-3.05,-3.0529,-3.057,-3.0535,-3.0458,-3.067,-3.0557,-3.0664,-3.0665,-3.0714,-3.0712,-3.104,-3.0732,-3.0732,-3.0731,-3.073,0,-3.0274,-3.0382,-3.0333,-3.0405,-3.0523,-3.0472,-3.0591,-3.0589,-3.0604,-3.0673,-3.0603,-3.0669,-3.0618,-3.068,-3.0653,-3.0765,-3.0778,-3.0771,-3.0763,-3.0779,-3.078,-3.0802,-3.0787,-3.0739,-3.0738,-3.0736,-3.0734,0,-3.0535,-3.0507,-3.0627,-3.0628,-3.0631,-3.0719,-3.072,-3.0786,-3.0769,-3.0858,-3.0876,-3.0852,-3.0921,-3.0889,-3.0962,-3.0943,-3.1088,-3.1059,-3.1081,-3.1074,-3.1183,-3.1174,-3.1537,-3.1583,-3.1244,-3.1248,-3.125,0,-3.0699,-3.078,-3.079,-3.0831,-3.0844,-3.0911,-3.0947,-3.09,-3.0941,-3.0973,-3.1035,-3.1098,-3.1146,-3.126,-3.1249,-3.1304,-3.1278,-3.1401,-3.1286,-3.1299,-3.1282,-3.1279,-3.1287,-3.1425,-3.1429,-3.1432,-3.1435,0,-3.0994,-3.0975,-3.103,-3.1081,-3.1126,-3.1164,-3.1195,-3.1233,-3.1187,-3.1236,-3.1306,-3.1343,-3.1416,-3.148,-3.1528,-3.1536,-3.1479,-3.1471,-3.1499,-3.1517,-3.1527,-3.1525,-3.1146,-3.1464,-3.1461,-3.1459,-3.1457,-3.1456,-3.1212,-3.128,-3.1298,-3.1362,-3.138,-3.1411,-3.1473,-3.1464,-3.1522,-3.1578,-3.1546,-3.1628,-3.1648,-3.1706,-3.1722,-3.1785,-3.1736,-3.1776,-3.1787,-3.1798,-3.1813,-3.1515,-3.1793,-3.1792,-3.1791,-3.1791,-3.179,0,-3.1505,-3.1511,-3.157,-3.1616,-3.1666,-3.1606,-3.1638,-3.1684,-3.1757,-3.178,-3.1828,-3.1908,-3.1969,-3.1962,-3.2018,-3.207,-3.2045,-3.2087,-3.2084,-3.2086,-3.1853,-3.1824,-3.2106,-3.2106,-3.2106,-3.2106,-3.2105,-3.2105,-3.1663,-3.1775,-3.1759,-3.188,-3.1885,-3.1965,-3.1988,-3.2016,-3.2034,-3.2127,-3.2177,-3.2172,-3.2183,-3.2238,-3.2292,-3.2288,-3.2313,-3.2365,-3.2352,-3.2134,-3.2103,-3.2073,-3.2046,-3.237,-3.237,-3.258,-3.2582,-3.2584]},{"header":{"parameterUnit":"m.s-1","parameterCategory":1,"la1":30.2991,"la2":30.254,"lo1":-89.0895,"lo2":-89.0444,"dy":0.0017,"dx":0.0017,"nx":28,"ny":28,"refTime":"2025-11-04T03:00:00:Z","depth":0,"parameterNumber":3,"parameterNumberName":"V-component_of_WINDS"},"data":[0,0,0,0,0,0,0,0,0,0,0,0,0,0,0,0,0,0,0,0,0,0,0,0,0,0,0,0,0,0,0,0,0,0,0,0,0,0,0,0,0,0,0,0,0,0,0,0,0,0,0,0,0,0,0,0,0,0,-4.2659,-4.266,0,-4.2732,-4.2733,-4.2734,-4.2677,-4.2675,-4.2672,-4.267,-4.274,-4.2744,-4.2749,0,0,0,0,0,0,0,0,0,0,0,0,0,-4.2464,-4.2468,-4.2659,-4.266,-4.2661,-4.2732,-4.2733,-4.2734,-4.2678,-4.2675,-4.2672,-4.2669,-4.2739,-4.2744,-4.2749,0,0,0,0,0,0,0,0,0,0,0,0,0,-4.2544,-4.247,-4.2659,-4.2641,-4.2641,-4.2732,-4.2733,-4.2734,-4.2678,-4.2675,-4.2671,-4.2668,-4.2737,-4.2743,-4.275,-4.2861,0,0,-4.2769,-4.2771,0,0,0,0,0,0,0,0,-4.254,-4.2551,-4.2643,-4.2643,-4.2642,-4.2692,-4.269,-4.2777,-4.2679,-4.2664,-4.267,-4.2666,-4.2727,-4.2734,-4.2755,-4.2864,-4.2867,-4.2769,-4.2773,-4.2776,-4.2777,0,0,0,0,0,0,0,-4.2534,-4.2548,-4.2688,-4.2644,-4.2644,-4.2628,-4.2635,-4.2706,-4.2715,-4.2665,-4.2661,-4.2671,-4.2726,-4.275,-4.2757,-4.2868,-4.2769,-4.2774,-4.2778,-4.2781,-4.3069,-4.3073,0,0,0,0,0,0,-4.2531,-4.2544,-4.2686,-4.269,-4.2581,-4.2634,-4.2643,-4.268,-4.2714,-4.2716,-4.2674,-4.2668,-4.2741,-4.2749,-4.2759,-4.289,-4.2775,-4.2781,-4.2785,-4.3065,-4.307,-4.3074,0,0,0,0,0,0,-4.2527,-4.2545,-4.2683,-4.2616,-4.2632,-4.2642,-4.2684,-4.2683,-4.2706,-4.2721,-4.2721,-4.2697,-4.2738,-4.275,-4.2836,-4.2891,-4.2784,-4.279,-4.3061,-4.3067,-4.3072,-4.3154,0,0,0,0,0,0,-4.2522,-4.2543,-4.2587,-4.2617,-4.2636,-4.276,-4.2687,-4.2687,-4.2718,-4.2711,-4.2742,-4.2744,-4.2736,-4.2827,-4.2842,-4.2898,-4.2795,-4.3056,-4.3063,-4.307,-4.3146,-4.3162,-4.3175,0,0,0,0,0,-4.2515,-4.2607,-4.259,-4.2607,-4.2691,-4.2764,-4.2774,-4.2765,-4.2723,-4.2766,-4.2774,-4.2743,-4.2883,-4.2836,-4.2853,-4.2912,-4.3052,-4.3061,-4.307,-4.314,-4.3159,-4.3175,0,0,0,0,0,0,-4.2582,-4.261,-4.2592,-4.2696,-4.2728,-4.2754,-4.2808,-4.2785,-4.2829,-4.282,-4.2805,-4.2812,-4.2902,-4.2915,-4.2862,-4.302,-4.2961,-4.2973,-4.3008,-4.3026,-4.304,-4.3035,-4.28,0,0,0,0,0,-4.2609,-4.2667,-4.2688,-4.2778,-4.2795,-4.2799,-4.283,-4.282,-4.2852,-4.2864,-4.2879,-4.291,-4.296,-4.2994,-4.3042,-4.3148,-4.3152,-4.3196,-4.3211,-4.3223,-4.3233,-4.3288,-4.3307,-4.3103,-4.3103,-4.3103,0,0,-4.2665,-4.2688,-4.2725,-4.2792,-4.2815,-4.2874,-4.2811,-4.2875,-4.2918,-4.2874,-4.2955,-4.2967,-4.3,-4.3096,-4.3139,-4.311,-4.3291,-4.3234,-4.3243,-4.3248,-4.3299,-4.3319,-4.3336,-4.3109,-4.3108,-4.3107,0,0,-4.2796,-4.2821,-4.2897,-4.2922,-4.2959,-4.2961,-4.2979,-4.3008,-4.3015,-4.3097,-4.3065,-4.3114,-4.3202,-4.3226,-4.325,-4.339,-4.3361,-4.3405,-4.3481,-4.3535,-4.3551,-4.3565,-4.3613,-4.363,-4.3416,-4.3416,-4.3416,0,-4.2861,-4.295,-4.2939,-4.3007,-4.3036,-4.3,-4.3076,-4.31,-4.315,-4.317,-4.3137,-4.3245,-4.3265,-4.3365,-4.3399,-4.342,-4.3439,-4.3401,-4.3549,-4.3563,-4.3576,-4.3622,-4.364,-4.3421,-4.3421,-4.342,-4.342,0,-4.3026,-4.3088,-4.3145,-4.3195,-4.3231,-4.3303,-4.3301,-4.3338,-4.3325,-4.3329,-4.3412,-4.3434,-4.3485,-4.3508,-4.3495,-4.3606,-4.3586,-4.3552,-4.3492,-4.3601,-4.3644,-4.3661,-4.3428,-4.3427,-4.3425,-4.3424,0,0,-4.3202,-4.3245,-4.3266,-4.3288,-4.3325,-4.3371,-4.344,-4.3491,-4.3522,-4.3557,-4.3613,-4.3688,-4.3656,-4.3683,-4.3672,-4.372,-4.3826,-4.3679,-4.3679,-4.3704,-4.3947,-4.3973,-4.3993,-4.3808,-4.3812,-4.3814,-4.3944,0,-4.3335,-4.3456,-4.3448,-4.3562,-4.3617,-4.3583,-4.3642,-4.367,-4.3676,-4.3722,-4.3728,-4.3781,-4.3735,-4.3751,-4.3797,-4.3804,-4.3875,-4.3794,-4.3858,-4.386,-4.385,-4.4016,-4.4043,-4.4165,-4.3961,-4.3964,-4.3966,0,-4.3506,-4.3548,-4.3667,-4.3694,-4.3717,-4.3771,-4.3816,-4.3862,-4.3892,-4.3892,-4.3922,-4.3903,-4.397,-4.3909,-4.4,-4.3945,-4.3971,-4.3978,-4.3982,-4.3987,-4.3919,-4.4024,-4.4203,-4.4221,-4.3992,-4.399,-4.3988,0,-4.362,-4.3706,-4.3789,-4.3808,-4.3843,-4.3881,-4.3897,-4.3923,-4.3954,-4.3992,-4.4012,-4.4057,-4.4082,-4.4116,-4.4109,-4.4066,-4.4201,-4.414,-4.4202,-4.4202,-4.4231,-4.4229,-4.4416,-4.425,-4.4249,-4.4249,-4.4249,0,-4.3768,-4.3842,-4.384,-4.3891,-4.3972,-4.3961,-4.4041,-4.4052,-4.4076,-4.4126,-4.4098,-4.4146,-4.4134,-4.418,-4.4175,-4.425,-4.4261,-4.4262,-4.426,-4.4264,-4.4264,-4.428,-4.4271,-4.4254,-4.4253,-4.4252,-4.4251,0,-4.391,-4.3912,-4.3999,-4.4024,-4.4032,-4.4091,-4.4111,-4.4158,-4.4161,-4.4225,-4.4239,-4.4244,-4.4297,-4.4294,-4.4353,-4.4349,-4.4441,-4.443,-4.4432,-4.4429,-4.449,-4.4484,-4.4693,-4.4719,-4.4537,-4.4539,-4.454,0,-4.4004,-4.406,-4.4092,-4.4124,-4.4143,-4.4195,-4.4226,-4.4217,-4.425,-4.4288,-4.4329,-4.438,-4.442,-4.4506,-4.4513,-4.4558,-4.4546,-4.4616,-4.4553,-4.4555,-4.4546,-4.4542,-4.4547,-4.4629,-4.4631,-4.4632,-4.4634,0,-4.417,-4.4168,-4.4215,-4.4262,-4.43,-4.4336,-4.4369,-4.4396,-4.439,-4.4428,-4.4483,-4.4514,-4.4575,-4.4625,-4.4667,-4.4681,-4.4656,-4.4654,-4.467,-4.4675,-4.4673,-4.4673,-4.4465,-4.4649,-4.4647,-4.4646,-4.4646,-4.4645,-4.429,-4.4337,-4.4367,-4.4419,-4.4443,-4.4474,-4.4519,-4.4528,-4.4574,-4.4624,-4.4615,-4.4675,-4.4702,-4.4756,-4.4774,-4.482,-4.4795,-4.4819,-4.4825,-4.4831,-4.4837,-4.4667,-4.4828,-4.4828,-4.4827,-4.4827,-4.4826,0,-4.4453,-4.447,-4.4519,-4.4566,-4.4606,-4.4581,-4.4616,-4.4651,-4.4705,-4.4733,-4.4773,-4.4834,-4.4882,-4.4893,-4.4939,-4.4973,-4.4963,-4.4985,-4.4982,-4.4985,-4.4858,-4.4839,-4.4993,-4.4993,-4.4993,-4.4993,-4.4993,-4.4993,-4.4543,-4.4621,-4.4623,-4.4712,-4.4728,-4.4789,-4.481,-4.4838,-4.486,-4.493,-4.4971,-4.4978,-4.4998,-4.5045,-4.5087,-4.5089,-4.5106,-4.5133,-4.513,-4.5011,-4.4994,-4.4978,-4.496,-4.5137,-4.5138,-4.5253,-4.5254,-4.5255]}]]